| time (UTC) | temp C | wind direction | speed KPH | gust KPH | rain 1hr cm | rain 24hr cm | rain mn cm | humidity % | barometer mb |
| 20260904221538 | 21 | 156 | 4.8 | 14.5 | 0.00 | 0.00 | 0.00 | 45 | 1013.5 |
| 20260904220044 | 21 | 166 | 6.4 | 11.3 | 0.00 | 0.00 | 0.00 | 46 | 1013.6 |
| 20260904214545 | 21 | 166 | 6.4 | 11.3 | 0.00 | 0.00 | 0.00 | 45 | 1013.8 |
| 20260904213044 | 21 | 166 | 3.2 | 11.3 | 0.00 | 0.00 | 0.00 | 48 | 1013.6 |
| 20260904211539 | 21 | 166 | 6.4 | 11.3 | 0.00 | 0.00 | 0.00 | 47 | 1013.8 |
| 20260904210043 | 20 | 166 | 4.8 | 14.5 | 0.00 | 0.00 | 0.00 | 49 | 1013.7 |
| 20260904204538 | 20 | 169 | 6.4 | 12.9 | 0.00 | 0.00 | 0.00 | 51 | 1013.7 |
| 20260904203037 | 20 | 175 | 6.4 | 11.3 | 0.00 | 0.00 | 0.00 | 52 | 1013.6 |
| 20260904201542 | 20 | 0 | 0.0 | 12.9 | 0.00 | 0.00 | 0.00 | 55 | 1013.8 |
| 20260904200054 | 19 | 192 | 1.6 | 9.7 | 0.00 | 0.00 | 0.00 | 55 | 1013.7 |
| 20260904194544 | 19 | 0 | 1.6 | 9.7 | 0.00 | 0.00 | 0.00 | 55 | 1013.9 |
| 20260904193041 | 18 | 202 | 3.2 | 11.3 | 0.00 | 0.00 | 0.00 | 59 | 1013.9 |
| 20260904191545 | 18 | 163 | 1.6 | 12.9 | 0.00 | 0.00 | 0.00 | 61 | 1014.1 |
| 20260904190040 | 18 | 167 | 6.4 | 14.5 | 0.00 | 0.00 | 0.00 | 59 | 1014.2 |
| 20260904184540 | 18 | 131 | 6.4 | 14.5 | 0.00 | 0.00 | 0.00 | 60 | 1014.2 |
| 20260904183040 | 17 | 119 | 8.0 | 16.1 | 0.00 | 0.00 | 0.00 | 60 | 1014.2 |
| 20260904181536 | 17 | 130 | 4.8 | 12.9 | 0.00 | 0.00 | 0.00 | 63 | 1014.0 |
| 20260904180039 | 17 | 133 | 3.2 | 11.3 | 0.00 | 0.00 | 0.00 | 63 | 1013.9 |
| 20260904174536 | 17 | 132 | 3.2 | 12.9 | 0.00 | 0.00 | 0.00 | 65 | 1013.9 |
| 20260904173040 | 16 | 124 | 8.0 | 14.5 | 0.00 | 0.00 | 0.00 | 66 | 1013.9 |
| 20260904171605 | 16 | 159 | 6.4 | 12.9 | 0.00 | 0.00 | 0.00 | 68 | 1013.8 |
| 20260904170039 | 15 | 0 | 3.2 | 11.3 | 0.00 | 0.00 | 0.00 | 68 | 1013.7 |
| 20260904164539 | 15 | 142 | 6.4 | 12.9 | 0.00 | 0.00 | 0.00 | 73 | 1013.6 |
| 20260904163049 | 14 | 129 | 1.6 | 6.4 | 0.00 | 0.00 | 0.00 | 77 | 1013.5 |
| 20260904161542 | 13 | 129 | 1.6 | 8.0 | 0.00 | 0.00 | 0.00 | 78 | 1013.8 |
| 20260904160046 | 12 | 130 | 4.8 | 8.0 | 0.00 | 0.00 | 0.00 | 80 | 1013.7 |
| 20260904154536 | 12 | 151 | 3.2 | 9.7 | 0.00 | 0.00 | 0.00 | 81 | 1013.7 |
| 20260904153103 | 12 | 151 | 3.2 | 9.7 | 0.00 | 0.00 | 0.00 | 81 | 1013.7 |
| 20260904151540 | 12 | 151 | 4.8 | 8.0 | 0.00 | 0.00 | 0.00 | 81 | 1013.5 |
| 20260904150039 | 11 | 151 | 0.0 | 8.0 | 0.00 | 0.00 | 0.00 | 81 | 1013.3 |
| 20260904144536 | 11 | 151 | 1.6 | 8.0 | 0.00 | 0.00 | 0.00 | 82 | 1013.1 |
| 20260904143047 | 11 | 151 | 1.6 | 6.4 | 0.00 | 0.00 | 0.00 | 84 | 1012.6 |
| 20260904141540 | 10 | 151 | 0.0 | 8.0 | 0.00 | 0.00 | 0.00 | 86 | 1012.4 |
| 20260904140043 | 9 | 0 | 0.0 | 0.0 | 0.00 | 0.00 | 0.00 | 86 | 1012.2 |
| 20260904134537 | 8 | 0 | 0.0 | 8.0 | 0.00 | 0.00 | 0.00 | 85 | 1012.1 |
| 20260904133040 | 9 | 151 | 1.6 | 4.8 | 0.00 | 0.00 | 0.00 | 83 | 1012.0 |
| 20260904131543 | 10 | 151 | 1.6 | 8.0 | 0.00 | 0.00 | 0.00 | 83 | 1011.9 |
| 20260904130040 | 9 | 151 | 1.6 | 4.8 | 0.00 | 0.00 | 0.00 | 83 | 1011.9 |
| 20260904124539 | 10 | 151 | 0.0 | 3.2 | 0.00 | 0.00 | 0.00 | 83 | 1011.7 |
| 20260904123042 | 10 | 151 | 1.6 | 4.8 | 0.00 | 0.00 | 0.00 | 83 | 1011.7 |
| 20260904121536 | 10 | 151 | 0.0 | 4.8 | 0.00 | 0.00 | 0.00 | 83 | 1011.5 |
| 20260904120046 | 10 | 0 | 0.0 | 0.0 | 0.00 | 0.00 | 0.00 | 82 | 1011.5 |
| 20260904114538 | 10 | 0 | 1.6 | 8.0 | 0.00 | 0.00 | 0.00 | 83 | 1011.2 |
| 20260904113039 | 10 | 0 | 0.0 | 1.6 | 0.00 | 0.00 | 0.00 | 82 | 1011.0 |
| 20260904111536 | 10 | 0 | 0.0 | 4.8 | 0.00 | 0.00 | 0.00 | 82 | 1010.8 |
| 20260904110039 | 10 | 0 | 0.0 | 1.6 | 0.00 | 0.00 | 0.00 | 81 | 1010.7 |
| 20260904104540 | 10 | 0 | 1.6 | 4.8 | 0.00 | 0.00 | 0.00 | 80 | 1010.6 |
| 20260904103042 | 11 | 151 | 1.6 | 4.8 | 0.00 | 0.00 | 0.00 | 81 | 1010.6 |
| 20260904101540 | 11 | 0 | 0.0 | 0.0 | 0.00 | 0.00 | 0.00 | 80 | 1010.4 |
| 20260904100035 | 11 | 0 | 0.0 | 3.2 | 0.00 | 0.00 | 0.00 | 79 | 1010.1 |
| 20260904094537 | 11 | 0 | 0.0 | 3.2 | 0.00 | 0.00 | 0.00 | 79 | 1009.9 |
| 20260904093037 | 11 | 0 | 0.0 | 4.8 | 0.00 | 0.00 | 0.00 | 79 | 1009.7 |
| 20260904091539 | 11 | 151 | 1.6 | 4.8 | 0.00 | 0.00 | 0.00 | 79 | 1009.6 |
| 20260904090035 | 11 | 151 | 1.6 | 8.0 | 0.00 | 0.00 | 0.00 | 80 | 1009.6 |
| 20260904084543 | 11 | 151 | 1.6 | 4.8 | 0.00 | 0.00 | 0.00 | 79 | 1009.8 |
| 20260904083041 | 11 | 0 | 0.0 | 3.2 | 0.00 | 0.00 | 0.00 | 79 | 1009.6 |
| 20260904081539 | 11 | 0 | 0.0 | 1.6 | 0.00 | 0.00 | 0.00 | 77 | 1009.6 |
| 20260904080055 | 12 | 0 | 0.0 | 3.2 | 0.00 | 0.00 | 0.00 | 77 | 1009.6 |
| 20260904074538 | 12 | 0 | 0.0 | 4.8 | 0.00 | 0.00 | 0.00 | 77 | 1009.7 |
| 20260904073037 | 12 | 0 | 0.0 | 4.8 | 0.00 | 0.00 | 0.00 | 75 | 1009.6 |
| 20260904071541 | 13 | 0 | 0.0 | 4.8 | 0.00 | 0.00 | 0.00 | 74 | 1009.7 |
| 20260904070046 | 13 | 0 | 0.0 | 4.8 | 0.00 | 0.00 | 0.00 | 72 | 1009.7 |
| 20260904064534 | 13 | 151 | 1.6 | 4.8 | 0.00 | 0.00 | 0.00 | 72 | 1009.8 |
| 20260904063047 | 13 | 151 | 3.2 | 8.0 | 0.00 | 0.00 | 0.00 | 72 | 1009.7 |
| 20260904061539 | 13 | 151 | 1.6 | 3.2 | 0.00 | 0.00 | 0.00 | 73 | 1009.5 |
| 20260904060046 | 13 | 0 | 0.0 | 1.6 | 0.00 | 0.00 | 0.00 | 73 | 1009.4 |
| 20260904054546 | 12 | 0 | 0.0 | 8.0 | 0.00 | 0.00 | 0.00 | 74 | 1009.4 |
| 20260904053056 | 13 | 151 | 4.8 | 11.3 | 0.00 | 0.00 | 0.00 | 72 | 1009.2 |
| 20260904051543 | 13 | 152 | 8.0 | 16.1 | 0.00 | 0.00 | 0.00 | 70 | 1009.2 |
| 20260904050037 | 14 | 145 | 11.3 | 22.5 | 0.00 | 0.00 | 0.00 | 69 | 1009.2 |
| 20260904044542 | 15 | 140 | 14.5 | 24.1 | 0.00 | 0.00 | 0.00 | 68 | 1008.9 |
| 20260904043052 | 15 | 155 | 3.2 | 9.7 | 0.00 | 0.00 | 0.00 | 69 | 1008.8 |
| 20260904041540 | 15 | 0 | 0.0 | 0.0 | 0.00 | 0.00 | 0.00 | 69 | 1008.5 |
| 20260904040042 | 15 | 0 | 0.0 | 3.2 | 0.00 | 0.00 | 0.00 | 70 | 1008.6 |
| 20260904034541 | 15 | 0 | 0.0 | 4.8 | 0.00 | 0.00 | 0.00 | 72 | 1008.5 |
| 20260904033040 | 15 | 0 | 1.6 | 8.0 | 0.00 | 0.00 | 0.00 | 70 | 1008.5 |
| 20260904031538 | 15 | 0 | 0.0 | 8.0 | 0.00 | 0.00 | 0.00 | 70 | 1008.5 |
| 20260904030055 | 16 | 155 | 3.2 | 9.7 | 0.00 | 0.00 | 0.00 | 69 | 1008.3 |
| 20260904024543 | 16 | 155 | 4.8 | 8.0 | 0.00 | 0.03 | 0.00 | 67 | 1008.1 |
| 20260904023042 | 16 | 0 | 0.0 | 0.0 | 0.00 | 0.03 | 0.00 | 68 | 1008.0 |
| 20260904021550 | 17 | 0 | 0.0 | 9.7 | 0.00 | 0.03 | 0.00 | 67 | 1008.0 |
| 20260904020036 | 17 | 155 | 1.6 | 4.8 | 0.00 | 0.03 | 0.00 | 69 | 1008.2 |
| 20260904014542 | 17 | 155 | 1.6 | 6.4 | 0.00 | 0.03 | 0.00 | 67 | 1008.3 |
| 20260904013037 | 17 | 0 | 3.2 | 8.0 | 0.00 | 0.03 | 0.00 | 66 | 1008.2 |
| 20260904011542 | 17 | 155 | 3.2 | 8.0 | 0.00 | 0.03 | 0.00 | 66 | 1008.2 |
| 20260904010036 | 18 | 155 | 3.2 | 9.7 | 0.00 | 0.03 | 0.00 | 60 | 1008.3 |
| 20260904004538 | 18 | 155 | 6.4 | 12.9 | 0.00 | 0.03 | 0.00 | 56 | 1008.4 |
| 20260904003037 | 18 | 155 | 8.0 | 14.5 | 0.00 | 0.03 | 0.00 | 56 | 1008.5 |
| 20260904001537 | 18 | 156 | 8.0 | 14.5 | 0.00 | 0.03 | 0.00 | 56 | 1008.6 |
| 20260904000038 | 18 | 163 | 8.0 | 16.1 | 0.00 | 0.03 | 0.00 | 54 | 1008.7 |
| 20260903234540 | 19 | 167 | 9.7 | 17.7 | 0.00 | 0.03 | 0.00 | 53 | 1008.7 |
| 20260903233039 | 19 | 180 | 8.0 | 12.9 | 0.00 | 0.03 | 0.00 | 53 | 1008.7 |
| 20260903231545 | 19 | 191 | 4.8 | 12.9 | 0.00 | 0.03 | 0.00 | 52 | 1008.9 |
| 20260903230041 | 20 | 188 | 11.3 | 19.3 | 0.00 | 0.03 | 0.00 | 51 | 1009.0 |
| 20260903224539 | 20 | 149 | 11.3 | 17.7 | 0.00 | 0.03 | 0.00 | 48 | 1009.2 |
| 20260903223040 | 18 | 205 | 9.7 | 19.3 | 0.00 | 0.03 | 0.00 | 53 | 1009.5 |